Regional Weather Roundup
Issued by NWS

Home | Current Version | Previous Version | Graphics & Text | Print | Product List | Glossary On
Versions: 1 2 3 4 5 6 7 8 9 10 11 12 13 14 15 16 17 18 19 20 21 22 23 24 25 26 27 28 29 30 31 32 33 34 35 36 37 38 39 40 41 42 43 44 45 46 47 48 49 50
000
ASUS43 KMKX 261811
RWRWI

WISCONSIN REGIONAL WEATHER ROUNDUP
NATIONAL WEATHER SERVICE MILWAUKEE/SULLIVAN WI
100 PM CDT SAT JUL 26 2014

NOTE: "FAIR" INDICATES FEW OR NO CLOUDS BELOW 12,000 FEET WITH NO
SIGNIFICANT WEATHER AND/OR OBSTRUCTIONS TO VISIBILITY.

WIZ001-002-006>008-014>016-023>028-261900-
NORTHWEST WISCONSIN

CITY           SKY/WX    TMP DP  RH WIND       PRES   REMARKS
SUPERIOR ARPT  SUNNY     82  58  44 W6        29.78R HX  82
6HR MIN TEMP:  67; 6HR MAX TEMP:  82;

ASHLAND        SUNNY     81  57  43 W9        29.79R HX  81
6HR MIN TEMP:  70; 6HR MAX TEMP:  81;

HAYWARD        SUNNY     82  53  36 W7        29.81F HX  81
6HR MIN TEMP:  70; 6HR MAX TEMP:  82;

SIREN          SUNNY     82  56  40 W6        29.83R HX  82
6HR MIN TEMP:  69; 6HR MAX TEMP:  83;

RICE LAKE      MOSUNNY   80  55  42 CALM      29.84R HX  80
6HR MIN TEMP:  70; 6HR MAX TEMP:  82;

LADYSMITH      SUNNY     81  56  43 NW6       29.83F HX  81
6HR MIN TEMP:  69; 6HR MAX TEMP:  82;

EAU CLAIRE     CLOUDY    81  64  56 W7        29.81S HX  82
6HR MIN TEMP:  70; 6HR MAX TEMP:  83;

MENOMONIE      CLOUDY    80  63  55 SW7       29.83R HX  82
6HR MIN TEMP:  71; 6HR MAX TEMP:  81;

NEW RICHMOND   PTSUNNY   77  63  60 SW6       29.84R
6HR MIN TEMP:  70; 6HR MAX TEMP:  80;

OSCEOLA        PTSUNNY   78  63  59 SW5       29.85S HX  80
6HR MIN TEMP:  68; 6HR MAX TEMP:  80;

$$

WIZ003>005-009-010-017-018-261900-
NORTH CENTRAL WISCONSIN

CITY           SKY/WX    TMP DP  RH WIND       PRES   REMARKS
WOODRUFF       MOSUNNY   82  60  46 NW10G17   29.81S HX  82
6HR MIN TEMP:  65; 6HR MAX TEMP:  82;

RHINELANDER    MOSUNNY   78  60  53 W12       29.81R
6HR MIN TEMP:  64; 6HR MAX TEMP:  80;

EAGLE RIVER    MOSUNNY   76  55  47 NW13      29.81R
6HR MIN TEMP:  64; 6HR MAX TEMP:  78; 6HR PCP:  0.01;

LAND O LAKES   MOSUNNY   79  53  39 W8        29.81R
6HR MIN TEMP:  65; 6HR MAX TEMP:  79;

PHILLIPS       SUNNY     78  57  47 NW8       29.81F
6HR MIN TEMP:  66; 6HR MAX TEMP:  78;

TOMAHAWK       SUNNY     78  58  48 NW8       29.81S
6HR MIN TEMP:  64; 6HR MAX TEMP:  79;

MEDFORD        MOSUNNY   79  62  56 W8        29.82S HX  80
6HR MIN TEMP:  65; 6HR MAX TEMP:  79;

MERRILL        MOSUNNY   81  64  56 W12       29.80S HX  83
6HR MIN TEMP:  65; 6HR MAX TEMP:  81;

$$

WIZ029-030-035-036-043>047-261900-
CENTRAL WISCONSIN

CITY           SKY/WX    TMP DP  RH WIND       PRES   REMARKS
WAUSAU         MOSUNNY   81  63  54 NW14      29.79F HX  82
6HR MIN TEMP:  65; 6HR MAX TEMP:  82;

MOSINEE        MOSUNNY   79  64  61 NW8       29.83S HX  81
MARSHFIELD     PTSUNNY   78  67  68 W8        29.83R HX  80
6HR MIN TEMP:  66; 6HR MAX TEMP:  79;

STEVENS POINT  PTSUNNY   75  65  73 SW7       29.82S
6HR MIN TEMP:  64; 6HR MAX TEMP:  75;

WAUPACA        PTSUNNY   84  67  57 NW9       29.81R HX  87
6HR MIN TEMP:  66; 6HR MAX TEMP:  85;

WAUTOMA        PTSUNNY   83  69  62 W9        29.81S HX  86
6HR MIN TEMP:  65; 6HR MAX TEMP:  83;

WISC RAPIDS    MOSUNNY   79  68  69 VRB6      29.84R HX  81
6HR MIN TEMP:  67; 6HR MAX TEMP:  79;

CAMP DOUGLAS   CLOUDY    79  73  83 NW9       29.82S HX  82
$$

WIZ011>013-019>022-031-037>040-048>050-261900-
NORTHEAST WISCONSIN

CITY           SKY/WX    TMP DP  RH WIND       PRES   REMARKS
ANTIGO         MOSUNNY   78  64  63 W13       29.81S
6HR MIN TEMP:  64; 6HR MAX TEMP:  78;

STURGEON BAY   CLOUDY    73  64  73 W9        29.78S
6HR MIN TEMP:  64; 6HR MAX TEMP:  75;

GREEN BAY      CLOUDY    79  69  71 W9        29.79S HX  81
6HR MIN TEMP:  66; 6HR MAX TEMP:  79;

MANITOWOC      CLOUDY    71  63  75 SE7       29.79F
6HR MIN TEMP:  66; 6HR MAX TEMP:  77;

APPLETON       PTSUNNY   77  66  69 W9        29.81S
CLINTONVILLE   CLOUDY    79  64  61 W9        29.79S HX  81
OSHKOSH        PTSUNNY   77  68  73 SW6       29.80S
6HR MIN TEMP:  69; 6HR MAX TEMP:  78;

$$

WIZ032>034-041-042-053>061-261900-
SOUTHWEST WISCONSIN

CITY           SKY/WX    TMP DP  RH WIND       PRES   REMARKS
LA CROSSE      CLOUDY    76  68  76 CALM      29.83R
6HR MIN TEMP:  70; 6HR MAX TEMP:  76;

SPARTA         CLOUDY    76  68  75 SW5       29.84S
6HR MIN TEMP:  66; 6HR MAX TEMP:  77;

VIROQUA        MOCLDY    75  73  92 NW5       29.87R
6HR MIN TEMP:  64; 6HR MAX TEMP:  78;

BOSCOBEL       LGT RAIN  75  67  76 E7        29.81S
6HR MIN TEMP:  68; 6HR MAX TEMP:  79; 6HR PCP: TRACE;

PRAIRIE DU CHI CLOUDY    75  66  73 S3        29.83R
PLATTEVILLE    FAIR      76  70  80 NW5       29.87R
6HR MIN TEMP:  65; 6HR MAX TEMP:  77;

$$

WIZ056-057-062-063-064-067-068-261900-
SOUTH CENTRAL WISCONSIN

CITY           SKY/WX    TMP DP  RH WIND       PRES   REMARKS
BARABOO/DELLS  PTSUNNY   80  66  62 CALM      29.81F HX  82
6HR MIN TEMP:  66; 6HR MAX TEMP:  80;

LONE ROCK      PTSUNNY   81  69  67 W6        29.84R HX  84
6HR MIN TEMP:  70; 6HR MAX TEMP:  82;

WATERTOWN      PTSUNNY   77  67  71 W3        29.82F
6HR MIN TEMP:  63; 6HR MAX TEMP:  78;

MADISON        PTSUNNY   79  68  69 NE5       29.81F HX  81
6HR MIN TEMP:  69; 6HR MAX TEMP:  79;

MIDDLETON      FAIR      80  67  64 CALM      29.82F HX  82
6HR MIN TEMP:  69; 6HR MAX TEMP:  80;

MONROE         CLOUDY    75  68  78 N6        29.83R
JANESVILLE     MOSUNNY   81  64  57 CALM      29.81F HX  82
$$

WIZ051-052-058>065-066-070>072-261900-
SOUTHEAST WISCONSIN

CITY           SKY/WX    TMP DP  RH WIND       PRES   REMARKS
MILWAUKEE      CLOUDY    75  63  66 SE8       29.83R
6HR MIN TEMP:  66; 6HR MAX TEMP:  78;

WAUKESHA       PTSUNNY   75  63  64 W6        29.85R
MILWAUKEE/TIMM SUNNY     77  61  57 NE6       29.83S
RACINE         CLOUDY    76  63  64 SE10      29.82F
6HR MIN TEMP:  65; 6HR MAX TEMP:  77;

BURLINGTON     CLOUDY    77  65  66 NW3       29.83R
6HR MIN TEMP:  62; 6HR MAX TEMP:  77;

KENOSHA        CLOUDY    79  65  62 S9        29.79F HX  81
6HR MIN TEMP:  64; 6HR MAX TEMP:  79;

FOND DU LAC    MOSUNNY   78  66  66 SW6       29.81S HX  80
6HR MIN TEMP:  63; 6HR MAX TEMP:  79;

SHEBOYGAN      CLOUDY    77  66  68 SW6       29.80F
6HR MIN TEMP:  64; 6HR MAX TEMP:  79;

WEST BEND      MOSUNNY   77  63  61 W6        29.83R
JUNEAU         PTSUNNY   76  65  70 SW7       29.84R
6HR MIN TEMP:  62; 6HR MAX TEMP:  76;

$$

LSZ147-162-261900-
LAKE SUPERIOR

STATION/POSITION TIME  TEMP    WIND        PRES    WAVE
                       AIR SEA DIR/SP/G            HT/PER
                 (UTC) (F)     (DEG/KT/KT) (MB)    (FT/S)
W MID LAKE BUOY  1750   52 44  230/  8/  8 1007.0R   1/ 3
PORT WING        1700   75     240/  8/ 11 1008.1F
SAXON HARBOR     1700             CALM     1008.5
$$

LMZ867-665-643>646-261900-
LAKE MICHIGAN

STATION/POSITION TIME  TEMP    WIND        PRES    WAVE
                       AIR SEA DIR/SP/G            HT/PER
                 (UTC) (F)     (DEG/KT/KT) (MB)    (FT/S)
N MID LAKE BUOY  1750   60 55  210/ 14/ 16 1007.0F   2/ 4
NORTHPORT PIER   1700   67     150/  8/ 11 1007.8F
KEWAUNEE LAKESHO 1700   55     160/  8/  9 1009.9F
SHEBOYGAN LAKESH 1800   66     170/ 23/ 24 1009.0F
PORT WASHINGTON  1740   68     170/  5/  8 1010.2F
ATWATER BUOY     1800   62     260/  2     1011.4R
MILWAUKEE LAKESH 1700   62     140/ 14/ 16   N/A
S MID LAKE BUOY  1750   65 63  160/  4/  6 1010.5F   1
KENOSHA   LAKESH 1800   66     170/ 13/ 15 1008.8F
$$

TC  - TEMPERATURE IN CELSIUS
VSB - VISIBILITY IN STATUTE MILES
WCI - WIND CHILL INDEX
HX  - HEAT INDEX



USA.gov is the U.S. government's official web portal to all federal, state and local government web resources and services.